097  
ASUS46 KPQR 270010  
RWROR  
 
OREGON REGIONAL WEATHER ROUNDUP  
NATIONAL WEATHER SERVICE PORTLAND OR  
500 PM PDT TUE MAY 26 2020  
 
NOTE: "FAIR" INDICATES FEW OR NO CLOUDS BELOW 12,000 FEET WITH  
NO SIGNIFICANT WEATHER AND/OR S TO VISIBILITY
.  
 
ORZ001>013-270100-  
NORTHWEST OREGON  
 
 
CITY SKY/WX TMP DP RH WIND PRES REMARKS
 
ASTORIA FAIR 60 51 72 NW16 30.15F  
6HR MIN TEMP: 55; 6HR MAX TEMP: 62;  
 
TILLAMOOK FAIR 61 52 72 NW10 30.15S  
NEWPORT FAIR 59 52 77 N16G26 30.15F  
FLORENCE FAIR 60 51 74 NW16G23 30.09F  
PORTLAND CLOUDY 71 52 50 NW12 30.10S  
6HR MIN TEMP: 64; 6HR MAX TEMP: 72;  
 
VANCOUVER WA FAIR 71 52 50 NW8 30.09F  
6HR MIN TEMP: 64; 6HR MAX TEMP: 72;  
 
SCAPPOOSE FAIR 68 52 56 N10 30.10F  
6HR MIN TEMP: 64; 6HR MAX TEMP: 70;  
 
HILLSBORO FAIR 70 55 59 NE9 30.09F  
6HR MIN TEMP: 63; 6HR MAX TEMP: 73;  
 
AURORA FAIR 73 52 47 VRB3 30.09F  
6HR MIN TEMP: 64; 6HR MAX TEMP: 75;  
 
MCMINNVILLE FAIR 74 56 53 VRB3 30.08F  
6HR MIN TEMP: 62; 6HR MAX TEMP: 74;  
 
SALEM FAIR 73 53 49 N9 30.07F  
6HR MIN TEMP: 64; 6HR MAX TEMP: 75;  
 
CORVALLIS FAIR 75 58 55 NE12 30.07F  
EUGENE PTSUNNY 75 60 59 NE13 30.06F  
6HR MIN TEMP: 68; 6HR MAX TEMP: 77;  
 

 
 
ORZ021-028-270100-  
SOUTHWEST OREGON  
 
 
CITY SKY/WX TMP DP RH WIND PRES REMARKS
 
NORTH BEND FAIR 60 53 77 N28G35 30.10F  
6HR MIN TEMP: 60; 6HR MAX TEMP: 65;  
 
BROOKINGS FAIR 66 56 70 SE7 30.02F  
ROSEBURG FAIR 82 53 36 N10G20 30.01F  
6HR MIN TEMP: 71; 6HR MAX TEMP: 83;  
 
SEXTON SUMMIT CLOUDY 70 50 49 CALM 30.11F  
6HR MIN TEMP: 62; 6HR MAX TEMP: 73;  
 
GRANTS PASS FAIR 84 50 30 NW12 30.01S  
MEDFORD FAIR 87 50 27 NW12 29.96F  
6HR MIN TEMP: 73; 6HR MAX TEMP: 87;  
 

 
 
ORZ014>016-041-270100-  
COLUMBIA GORGE  
 
 
CITY SKY/WX TMP DP RH WIND PRES REMARKS
 
TROUTDALE FAIR 73 51 46 VRB3 30.09F  
6HR MIN TEMP: 65; 6HR MAX TEMP: 74;  
 
HOOD RIVER FAIR 73 46 38 W9 30.04F  
THE DALLES FAIR 79 47 32 NW22G30 29.99S  
6HR MIN TEMP: 73; 6HR MAX TEMP: 80;  
 

 
 
ORZ029>031-041-044-049-050-061>064-502-503-505>511-270100-  
EASTERN OREGON  
 
 
CITY SKY/WX TMP DP RH WIND PRES REMARKS
 
MADRAS FAIR 77 45 31 N9 30.06F  
REDMOND FAIR 80 44 27 NW15 30.05F  
6HR MIN TEMP: 68; 6HR MAX TEMP: 80;  
 
BEND FAIR 79 43 27 NW8G16 30.06S  
PRINEVILLE FAIR 75 46 35 NW13 30.06S  
KLAMATH FALLS FAIR 79 46 31 N13 30.06S  
6HR MIN TEMP: 70; 6HR MAX TEMP: 81;  
 
LAKEVIEW PTSUNNY 76 48 37 S7 30.08F  
HERMISTON FAIR 83 41 22 SW12G21 29.95F  
6HR MIN TEMP: 72; 6HR MAX TEMP: 83;  
 
PENDLETON FAIR 79 47 32 NW5 29.99F  
6HR MIN TEMP: 68; 6HR MAX TEMP: 80;  
 
JOHN DAY FAIR 71 49 45 CALM 30.08S  
MEACHAM FAIR 67 47 48 VRB3 30.09F  
6HR MIN TEMP: 58; 6HR MAX TEMP: 67;  
 
LA GRANDE FAIR 71 51 49 VRB7 30.05S  
6HR MIN TEMP: 64; 6HR MAX TEMP: 72;  
 
BAKER CITY FAIR 72 49 44 NW7 30.06F  
6HR MIN TEMP: 64; 6HR MAX TEMP: 74;  
 
BURNS CLOUDY 75 43 31 N10 30.07F  
6HR MIN TEMP: 66; 6HR MAX TEMP: 78;  
 
ROME N/A 79 48 33 N10 30.03F  
6HR MIN TEMP: 70; 6HR MAX TEMP: 80;  
 
ONTARIO PTSUNNY 79 47 32 VRB5 30.01F  
6HR MIN TEMP: 72; 6HR MAX TEMP: 81;  
 

 
 
 
CLICK HERE TO GO TO PREVIOUS BULLETINS.

The Nexlab OR Page Main Text Page